Lid_Strength_Index
3 4 6 8 12 14 16 14 12 12 11 8 7 8 9 8 10 12 2 1 0 0 -0 -0 -1 -1 -1 -1 -1 -1 -1 -1 -1 -1 -1 -1 -1 -1 -1 -1 -1 -1 -1 -1 -1 -1 -1 -1 -1
4 6 8 11 14 17 17 13 11 10 9 7 7 7 8 9 5 5 4 1 0 0 -0 -0 -0 -1 -1 -1 -1 -1 -1 -1 -1 -1 -1 -1 -1 -1 -1 -1 -1 -1 -1 -1 -1 -1 -0 1 1
4 7 11 13 16 17 16 13 11 10 9 7 8 6 7 8 5 4 2 1 0 0 -0 -0 -0 -0 -1 -1 -1 -1 -0 -1 -1 -1 -1 -1 -1 -1 -1 -1 -1 -1 -1 -1 -0 0 0 -0 -0
7 9 12 14 16 13 13 12 11 10 9 7 7 9 6 3 4 2 1 0 1 0 0 0 -0 -0 -1 -1 -0 -1 -1 -1 -1 -1 -0 -0 -1 -1 -1 -1 -0 -1 -0 -1 -1 -1 -1 -1 -1
10 12 15 17 15 13 11 10 11 10 10 9 7 10 8 4 2 1 1 1 1 0 0 -0 0 -0 -1 -1 -1 -1 -1 -1 -1 -1 -1 -1 -1 -1 -0 0 -0 -1 -1 -1 -1 -1 -1 -1 -0
10 13 16 17 15 13 11 10 10 10 10 7 9 9 8 3 2 2 1 1 1 0 -0 -0 -0 -0 -0 -1 -1 -1 -1 -1 -1 -1 -1 -1 -0 -0 0 -1 -0 -0 -1 -1 -0 -0 -0 -0 0
11 14 16 17 15 14 11 10 11 11 11 9 6 10 7 4 2 2 2 1 1 1 1 0 -0 -0 -0 -0 -0 -0 -1 -1 -1 -1 -1 0 0 -0 -0 0 -0 -0 -1 -0 0 0 0 1 1
11 13 16 15 15 14 10 10 10 11 10 5 5 9 9 5 2 2 2 2 2 2 1 1 -0 -0 0 0 -0 -0 -0 -1 -1 -0 -0 0 0 0 0 0 -0 -1 -0 0 1 1 1 1 1
11 14 16 15 14 13 9 10 9 9 11 7 5 6 5 3 2 3 3 4 3 3 2 2 1 1 1 0 -0 -1 -1 -0 0 1 1 2 5 4 4 1 0 0 1 1 1 2 2 2 2
11 15 13 12 11 11 10 11 10 11 11 11 7 5 4 3 3 4 4 4 4 3 3 2 2 3 1 0 0 1 1 2 4 5 6 7 7 6 4 2 1 1 2 2 2 2 3 5 7
13 14 12 11 11 10 10 11 10 11 12 10 10 7 5 4 4 4 4 3 3 3 3 3 3 3 3 2 3 3 5 6 5 7 8 9 7 7 7 7 7 7 6 7 7 7 7 7 8
14 12 12 11 10 10 11 10 10 11 9 7 9 5 5 5 5 4 4 3 3 3 3 3 3 4 4 4 4 4 6 7 7 9 9 9 9 10 9 9 9 9 9 9 8 8 8 8 8
11 10 9 9 9 9 9 10 10 10 8 7 8 5 5 5 4 4 3 3 3 4 4 4 4 4 5 5 5 7 8 8 8 9 9 10 10 11 10 10 9 9 9 9 9 9 9 9 9
9 9 9 8 8 8 9 9 10 9 7 8 7 6 5 5 5 4 3 3 3 4 4 4 4 4 6 6 7 8 9 9 9 10 9 10 10 10 10 10 10 10 10 10 10 10 10 10 9
8 10 9 9 8 9 9 12 11 8 8 9 8 6 5 5 4 4 3 3 3 2 3 4 5 5 6 6 7 9 10 9 10 9 10 10 10 10 10 10 10 10 10 11 10 11 11 11 9
10 10 14 11 9 9 11 13 11 8 11 10 10 10 6 5 5 4 3 3 2 2 2 4 5 6 6 7 8 8 10 10 9 9 10 10 9 9 10 10 10 10 10 11 11 11 12 11 10
13 15 14 12 8 10 10 12 10 10 9 9 9 9 9 6 5 4 3 3 2 2 2 3 5 7 7 7 8 9 9 9 9 10 10 10 9 10 9 10 10 10 11 11 12 13 12 11 10
16 16 16 15 10 11 12 11 9 8 9 9 9 9 9 8 5 4 3 3 2 2 2 3 4 7 8 8 8 8 9 9 10 10 11 10 10 10 9 10 10 11 11 12 13 14 13 11 11
12 14 14 13 10 11 11 11 9 8 9 9 8 9 8 9 7 3 3 3 3 2 2 3 5 8 8 9 9 10 10 10 11 11 11 11 11 10 10 10 11 11 12 12 13 14 14 13 12
12 14 14 11 10 11 12 12 9 8 7 7 7 7 7 7 9 7 4 3 3 3 2 3 5 8 8 8 8 9 10 10 11 11 11 10 10 10 10 11 11 12 12 12 13 13 15 14 14
13 14 14 14 11 11 12 14 11 8 7 6 6 6 6 6 7 7 5 4 3 3 3 3 4 7 8 8 8 9 10 10 11 11 12 11 10 10 10 11 11 12 12 13 13 13 14 15 15
15 10 11 12 14 17 12 18 12 10 9 8 7 7 7 7 8 9 5 5 4 3 2 2 4 7 7 9 9 10 10 12 11 11 11 11 11 11 11 11 12 12 12 13 14 14 14 15 15
13 10 11 12 14 15 14 17 13 10 10 9 9 8 7 7 7 8 5 4 4 3 3 2 4 6 6 9 9 9 9 10 11 12 12 13 12 11 11 11 12 12 12 13 14 14 15 15 15
9 11 11 12 14 19 15 15 16 12 10 10 8 7 8 8 8 8 7 4 4 3 3 2 3 5 6 9 9 8 9 11 13 13 13 13 13 12 13 12 12 12 12 14 14 14 15 15 15
11 13 18 20 20 20 12 15 14 10 8 8 8 8 8 8 8 8 9 5 4 4 3 3 4 6 6 8 9 8 9 11 12 13 13 13 13 13 13 12 13 13 13 14 14 14 15 15 15
13 13 18 22 19 17 13 17 13 9 8 8 8 7 8 8 8 8 7 8 4 4 4 4 4 6 7 8 10 8 10 11 11 12 12 12 12 13 13 13 13 13 13 14 14 14 15 15 15
13 15 11 16 15 18 16 13 9 9 9 10 9 8 8 8 8 8 8 7 6 4 4 5 4 6 8 8 9 9 11 11 12 12 12 13 13 13 13 13 13 13 13 13 14 15 16 15 15
11 10 16 16 22 23 18 16 15 13 13 11 10 9 8 8 7 8 8 8 7 4 5 5 5 7 8 8 9 10 10 11 12 13 13 13 13 13 13 13 13 14 14 14 14 16 15 16 16
14 14 13 15 16 20 22 19 14 13 12 12 10 9 8 9 8 9 9 8 8 8 6 7 7 8 8 9 10 10 12 12 13 13 13 13 13 13 14 13 13 14 14 14 15 15 16 17 17
11 13 13 17 18 16 17 18 11 11 11 10 10 9 7 8 7 8 9 9 9 9 8 8 8 8 9 9 10 11 12 12 13 13 14 13 13 13 14 13 14 14 14 15 15 15 16 17 17